User: anonymous   Login
Location: ?????
(37.7324°N, 23.9257°E)
Time: 13:12:14
(UTC+00:00)
Language:

RESURS DK-1 - Orbit

View from above orbital plane
View from above orbital plane
View from above satellite
View from above satellite

Ground track
Ground track

The orbit data is extracted from the following two-line orbital elements,

1 29228U 06021A   21061.70904367  .00000155  00000-0  18905-4 0  9996
2 29228  69.9335 250.5033 0002131  30.2631 329.8652 15.02649935811515
Epoch (UTC): 02 March 2021 17:01:01
Eccentricity: 0.0002131
inclination: 69.9335°
perigee height: 557 km
apogee height: 560 km
right ascension of ascending node: 250.5033°
argument of perigee: 30.2631°
revolutions per day: 15.02649935
mean anomaly at epoch: 329.8652°
orbit number at epoch: 81151

The dashed part of the orbit path shows where the satellite is in the earth's shadow,  

DLR